Terug naar catalogus

TITAN 3C TRANSTAGE DEB

LostHEO
NORAD 19595·DEBRIS·🇺🇸 United States

Gelanceerd Dec 21, 1965 vanaf Cape Canaveral Space Force Station

Loading…

Volgende Passages (komende 24 uur)

TLE

VerouderdSource: Space-Track

Epoch: Jul 21, 2026, 01:38 UTC

1 19595U 65108AB  26202.06812474  .00000497  00000-0  37171-3 0  9995
2 19595  26.8887 122.6700 5945884 227.2913  64.3828  4.03390127198409

Volg TITAN 3C TRANSTAGE DEB in realtime met AllMySat

Download on the App Store